Location: Bacharowice
(49.9333°N, 19.5833°E)
Time: 01:19:05
(UTC+00:00)

USA 305 - Pass Details

Date: 26 September 2021
Orbit: 547 x 588 km, 54.0° (Epoch: 03 October)

Event Time Altitude Azimuth Distance (km) Brightness Sun altitude
Rises 17:10:30 0° 286° (WNW) 2,737 8.6 -7.2°
Reaches altitude 10° 17:12:46 10° 292° (WNW) 1,848 7.0 -7.6°
Maximum altitude 17:16:53 51° 9° (N) 716 3.4 -8.2°
Enters shadow 17:20:51 11° 85° (E) 1,800 4.8 -8.9°
